Find Local Weather

World > North America > United States > Montana

Columbia Falls, Montana Regional Weather

Lat: 48.37N, Lon: 114.18W
Wx Zone: MTZ003
Feedback
Expires:201808161800;;158262
ASUS45 KTFX 161710
RWRMT 
MONTANA REGIONAL WEATHER ROUNDUP
NATIONAL WEATHER SERVICE GREAT FALLS MT
1100 AM MDT THU AUG 16 2018

NOTE: "FAIR" INDICATES FEW OR NO CLOUDS BELOW 12000 FEET WITH NO
SIGNIFICANT WEATHER AND/OR OBSTRUCTIONS TO VISIBILITY.


MTZ001>007-043-161800-
WEST OF THE DIVIDE
  
CITY           SKY/WX    TMP DP  RH WIND       PRES   REMARKS
KALISPELL      FAIR      72  47  40 NE7       30.10S SMOKE            
MISSOULA       FAIR      70  37  29 CALM      30.14S                  
BUTTE          FAIR      72  33  24 CALM      30.25F                  
MULLAN PASS    LGT RAIN  67  26  21 CALM      30.27R                  
ANACONDA         N/A     73  37  27 CALM      30.20F                  
DEER LODGE       N/A     68  36  30 CALM      30.22F                  
LIBBY            N/A     64  39  39 CALM      30.09S                  
PLAINS           N/A     65  41  41 CALM      30.10S                  
$$


SKY/WX - Weather  TMP - Temperature  DP - Dewpoint  RH - Relative Humidity
WIND - Wind Direction/Speed PRES - Barometric Pressure